Temperature
8 8 8 8 8 9 9 9 9 9 9 10 10 10 10 10 10 10 10 10 11 11 11 11 11 11 11 11 11 11 11 11 11 11 11 11 11 11 11 11 11 11 11
7 7 7 8 8 8 8 8 8 9 9 9 9 9 9 9 9 10 10 10 10 10 10 10 10 10 10 10 10 11 11 11 10 10 11 10 10 10 10 10 10 10 11
6 7 7 7 7 7 8 8 8 8 8 8 9 9 9 9 9 9 9 9 10 10 10 10 10 10 10 10 10 10 10 10 10 10 10 10 10 10 10 10 10 10 10
6 6 6 6 7 7 7 7 7 7 8 8 8 8 8 8 8 9 9 9 9 9 9 9 10 10 10 10 10 10 10 10 10 10 10 10 10 10 10 10 10 10 10
5 5 5 6 6 6 6 6 7 7 7 7 7 8 8 8 8 8 8 8 8 9 9 9 9 9 9 9 9 9 10 10 10 10 10 10 10 9 9 9 9 10 10
4 5 5 5 5 5 6 6 6 6 6 6 7 7 7 7 8 8 8 8 8 8 8 8 9 9 9 9 9 9 9 9 9 9 9 9 9 9 9 9 9 9 9
4 4 4 4 4 5 5 5 5 5 5 6 6 6 7 7 7 7 7 7 7 7 8 8 8 8 8 8 9 9 9 9 9 9 9 9 9 9 9 9 9 9 9
3 3 3 4 4 4 4 4 4 5 5 5 5 5 5 6 6 6 7 7 7 7 7 7 7 7 8 8 8 8 8 8 8 9 9 9 9 9 9 9 9 8 9
3 3 3 3 3 3 3 3 4 4 4 4 4 4 4 5 5 5 6 6 6 7 7 7 7 7 7 7 8 8 8 8 8 8 8 8 9 9 9 9 9 8 8
2 2 2 2 2 2 3 3 3 3 3 3 3 3 3 3 3 4 5 5 6 6 6 7 7 7 7 7 7 7 8 8 8 8 8 8 8 8 8 8 8 8 8
2 2 2 2 2 2 2 2 2 2 2 2 2 3 3 3 3 3 3 4 5 5 6 6 6 6 6 6 7 7 7 7 7 7 7 7 8 8 8 8 8 8 8
1 1 1 1 1 1 1 1 2 2 2 2 2 2 2 2 2 2 2 3 4 5 5 5 5 6 6 6 6 6 6 7 7 7 7 7 7 7 7 7 7 7 7
-0 0 0 0 0 1 1 1 1 1 1 1 1 1 1 1 2 2 2 2 2 3 4 5 5 5 5 5 5 6 6 6 6 6 6 6 6 7 7 7 7 7 7
-1 -1 -1 -1 -0 -0 -0 -0 0 0 0 0 0 0 0 1 1 1 1 1 1 2 3 4 4 4 5 5 5 5 5 5 6 6 6 6 6 6 6 6 6 6 7
-2 -2 -2 -1 -1 -1 -1 -1 -0 -0 -1 -0 -0 -0 -0 0 0 0 0 1 1 1 2 3 3 4 4 4 4 4 4 5 5 5 5 5 5 5 6 6 6 6 6
-3 -3 -3 -2 -2 -2 -2 -2 -1 -1 -1 -1 -1 -1 -1 -1 -0 -0 0 0 0 1 1 1 2 3 3 3 3 4 4 4 4 4 5 5 5 5 5 5 5 5 5
-3 -3 -3 -3 -3 -3 -2 -2 -2 -2 -2 -1 -1 -1 -1 -1 -1 -1 -0 -0 -0 0 0 1 1 2 2 3 3 3 3 4 4 4 4 4 4 5 5 5 5 5 5
-4 -4 -4 -4 -4 -3 -3 -3 -3 -2 -2 -2 -2 -2 -2 -2 -1 -1 -1 -1 -1 -0 -0 0 1 1 2 2 2 3 3 3 3 4 4 4 4 4 4 4 4 4 4
-4 -4 -5 -4 -4 -4 -4 -4 -4 -3 -3 -3 -2 -2 -2 -2 -2 -2 -2 -2 -1 -1 -1 -0 0 0 1 1 2 2 2 2 3 3 3 3 3 4 4 4 4 4 4
-5 -5 -5 -5 -5 -5 -5 -4 -4 -4 -4 -3 -3 -3 -3 -3 -3 -3 -3 -2 -2 -2 -1 -1 -1 -0 -0 1 1 1 1 2 2 2 2 3 3 3 3 3 3 3 3
-6 -6 -6 -6 -5 -5 -5 -5 -5 -5 -5 -4 -4 -4 -3 -3 -3 -3 -3 -3 -3 -3 -2 -2 -1 -1 -1 -0 -0 0 1 1 1 2 2 2 2 2 2 3 3 3 3
-6 -6 -6 -6 -6 -6 -6 -6 -6 -5 -5 -5 -5 -4 -4 -4 -4 -4 -4 -4 -3 -3 -3 -3 -2 -2 -1 -1 -1 -0 -0 -0 -0 0 1 1 1 1 2 2 2 2 2
-7 -7 -7 -7 -7 -6 -6 -6 -6 -6 -6 -5 -5 -5 -5 -5 -5 -4 -4 -4 -4 -4 -3 -3 -3 -2 -2 -1 -1 -1 -1 -1 -0 -0 0 0 0 1 1 1 1 1 2
-7 -7 -7 -7 -7 -7 -7 -7 -7 -7 -6 -6 -6 -6 -5 -5 -5 -5 -5 -5 -4 -4 -4 -4 -3 -3 -2 -2 -2 -2 -2 -2 -1 -1 -1 -1 -0 -0 0 0 1 1 1
-8 -8 -8 -8 -8 -7 -7 -7 -7 -7 -7 -7 -6 -6 -6 -6 -6 -6 -6 -5 -5 -5 -5 -4 -4 -4 -3 -3 -3 -3 -3 -3 -2 -2 -1 -2 -1 -1 -1 -1 -0 0 0
-9 -9 -8 -8 -8 -8 -8 -8 -8 -8 -8 -7 -7 -7 -7 -6 -6 -6 -6 -6 -6 -5 -5 -5 -4 -4 -4 -3 -3 -3 -3 -3 -3 -3 -2 -2 -2 -2 -2 -1 -1 -1 -1
Wind_Speed
4 4 4 4 4 4 4 4 3 3 2 2 1 1 1 1 1 1 1 1 0 1 2 2 3 2 3 4 6 5 5 6 6 6 5 5 5 6 6 6 6 6 7
3 3 4 4 4 4 4 4 4 3 2 2 2 2 2 2 2 2 1 1 1 1 2 2 3 3 2 3 5 6 6 5 6 6 5 5 5 5 5 6 6 5 5
3 3 3 3 4 4 4 3 4 3 2 2 2 2 2 2 2 2 2 2 2 2 2 3 3 3 2 2 4 5 6 6 5 6 6 5 5 5 5 6 6 5 5
3 3 3 3 4 3 3 3 3 2 2 2 2 2 2 2 3 3 3 2 2 2 2 3 3 3 3 3 2 5 5 6 6 6 6 6 6 5 5 6 6 5 5
3 3 3 3 3 2 3 2 2 2 3 3 3 3 3 3 3 3 3 3 3 3 3 2 3 4 4 4 3 4 6 6 7 6 6 6 5 6 6 7 6 6 5
3 3 3 3 3 2 2 2 3 3 2 3 3 3 3 3 3 3 3 3 3 4 4 3 3 4 5 5 4 4 5 6 7 7 7 7 6 5 6 7 7 6 6
3 3 3 3 2 2 2 3 3 3 2 2 2 2 3 3 3 3 3 3 3 3 3 3 3 3 3 4 4 4 5 6 7 7 7 8 8 7 7 6 7 7 7
3 3 3 3 3 3 3 2 2 2 2 1 1 2 2 3 3 3 3 3 3 3 3 3 3 3 3 4 4 4 4 5 6 7 8 9 9 8 8 8 8 8 8
3 3 4 4 3 3 3 3 3 3 2 2 1 2 2 2 2 3 4 4 3 3 3 3 4 4 4 5 4 4 4 5 6 7 7 8 10 10 10 9 10 9 9
4 4 4 4 4 3 3 3 3 4 4 3 3 3 4 3 3 2 3 4 4 4 4 4 4 4 5 5 5 4 5 5 6 7 8 8 9 10 10 10 9 10 9
4 4 4 4 4 4 4 4 4 4 4 5 4 4 4 4 5 4 5 4 4 4 4 5 5 4 5 6 5 5 5 6 7 7 8 8 9 10 10 9 9 9 9
4 5 5 5 5 5 5 5 5 6 5 6 5 5 5 4 4 4 6 6 5 4 5 5 5 4 5 6 6 5 6 6 7 7 7 8 8 8 10 11 10 10 9
4 5 5 6 5 6 6 6 6 6 6 6 6 6 6 6 6 6 6 6 6 5 4 5 5 5 5 6 6 6 7 8 8 8 7 8 9 8 8 10 11 11 11
5 6 6 6 7 7 7 6 6 6 6 7 7 7 6 6 6 6 6 5 6 5 5 5 4 5 6 6 7 7 8 9 9 9 9 9 9 8 8 10 10 11 11
5 6 6 7 7 7 7 6 5 6 6 6 6 7 6 6 6 6 6 6 6 6 7 6 4 5 6 7 7 9 9 9 10 10 11 11 10 9 9 10 10 9 10
6 6 6 7 7 7 7 7 6 6 6 6 6 7 7 6 6 6 7 7 7 8 7 6 6 6 7 7 9 10 11 11 12 12 12 12 12 10 10 10 10 10 10
6 7 7 7 7 7 7 7 7 7 7 7 7 8 8 8 7 7 7 7 7 8 9 8 7 6 8 8 8 9 10 10 11 13 13 13 13 12 11 11 11 11 11
6 7 7 7 7 7 7 7 8 7 8 8 8 8 9 7 8 8 7 8 8 8 9 10 8 7 8 9 8 8 8 9 10 12 14 13 12 12 12 12 12 12 12
6 6 7 7 7 7 7 8 8 8 8 8 9 9 9 9 9 8 9 8 7 8 9 9 9 7 7 7 7 8 8 8 9 10 12 12 12 13 12 13 13 13 13
7 7 7 7 7 7 8 8 8 9 8 8 9 9 9 9 10 10 9 9 8 8 9 9 8 7 7 7 6 6 7 7 7 7 8 10 11 13 14 14 14 14 14
7 7 7 7 7 7 7 8 8 9 8 9 9 9 9 10 12 11 9 9 9 8 8 8 8 8 7 6 6 6 7 7 7 6 6 7 8 9 11 12 13 14 15
7 7 7 8 8 7 9 11 10 9 9 9 9 9 10 10 12 13 14 14 12 11 10 10 9 10 10 8 7 7 7 7 7 5 6 7 7 8 9 10 12 13 14
7 8 8 8 8 9 11 11 12 10 9 9 10 9 8 8 11 10 11 13 13 15 15 12 12 12 11 9 9 9 9 9 9 7 7 9 8 9 8 10 12 14 14
7 8 8 8 9 9 11 12 13 10 10 10 10 10 10 10 9 10 10 10 11 12 12 12 12 12 11 10 10 10 10 10 9 8 8 8 8 8 7 8 10 12 13
8 8 8 9 9 10 11 12 12 9 9 10 10 10 10 11 12 13 11 11 11 10 11 13 15 14 15 14 11 8 8 8 8 7 6 7 7 6 7 7 8 11 11
8 8 8 9 9 10 11 12 12 8 9 9 9 10 12 12 12 12 10 10 11 10 9 9 10 11 11 11 12 11 9 9 8 7 6 6 6 4 4 5 6 7 9
Wind_Direction
9 2 358 3 360 2 359 345 337 330 325 331 324 313 300 271 259 240 188 130 223 223 196 175 169 178 184 186 181 170 157 148 145 141 136 134 137 132 123 123 133 129 123
6 353 350 353 350 349 346 336 325 310 308 310 292 287 274 262 251 244 232 200 207 238 231 209 194 202 189 190 189 178 166 160 162 161 155 149 149 150 143 142 133 130 134
354 347 343 342 340 332 335 334 331 314 298 297 282 278 274 261 251 243 244 240 226 230 248 239 217 203 195 186 194 183 180 172 171 171 172 171 166 165 160 157 149 141 133
340 339 337 331 329 328 332 332 324 313 295 278 274 267 264 260 246 239 238 243 251 252 243 238 231 217 203 196 206 201 190 187 184 182 181 184 185 179 179 171 167 160 154
336 331 329 326 321 324 328 321 314 297 294 287 278 266 255 248 245 233 232 239 245 253 252 229 222 227 225 218 222 221 207 200 197 195 191 188 190 194 194 188 179 176 175
332 329 326 319 317 311 316 312 308 300 293 294 278 272 260 247 245 232 233 237 244 253 250 242 229 224 227 223 225 233 219 213 206 205 204 199 198 201 200 202 196 193 193
326 327 325 311 305 285 287 293 299 290 304 317 292 290 269 240 235 228 229 237 244 249 249 244 239 233 227 223 222 230 234 228 221 215 215 208 207 210 212 210 208 206 207
317 316 321 308 293 277 270 279 295 289 291 314 307 285 270 234 226 237 239 243 249 253 253 251 244 233 237 230 228 226 234 240 238 226 226 221 214 215 218 221 221 218 214
316 312 305 302 291 281 266 267 265 275 266 263 261 254 262 255 287 240 240 240 248 250 256 251 245 234 239 241 233 222 228 237 241 239 233 234 224 220 219 221 226 226 223
305 304 299 300 290 281 277 269 258 261 252 250 253 255 267 275 259 265 241 242 254 253 256 251 243 238 233 239 241 240 231 231 238 245 238 239 232 224 224 226 228 227 227
299 295 292 297 291 277 274 275 270 263 247 245 247 254 256 259 258 254 264 260 259 252 253 252 242 243 235 235 240 240 231 230 240 244 243 251 242 230 227 228 231 230 229
299 298 294 286 287 280 269 269 266 263 252 246 247 247 247 245 251 258 261 268 265 259 255 249 244 238 236 235 238 244 233 234 244 248 249 259 249 237 234 231 233 232 233
294 296 299 288 284 281 276 267 260 259 252 249 248 246 247 248 253 261 263 271 273 271 253 245 241 236 239 240 244 240 236 237 246 251 254 263 250 242 244 238 235 233 235
286 292 291 291 291 286 279 271 264 257 251 250 251 252 252 251 252 253 258 264 271 265 251 249 246 239 246 245 250 241 245 241 244 250 252 256 252 247 249 245 240 237 234
285 286 286 286 288 288 285 277 265 261 258 256 255 256 256 254 253 255 256 252 252 260 254 250 249 244 250 253 255 249 248 245 246 247 251 253 250 248 248 247 241 238 235
285 284 283 283 283 284 284 278 266 259 256 256 255 253 254 255 254 251 250 251 249 254 259 257 258 267 264 265 257 251 248 245 243 244 249 251 248 246 247 243 239 237 236
286 284 281 279 280 280 279 277 269 262 257 258 255 253 253 255 256 254 252 250 248 249 258 268 266 269 261 264 268 255 252 245 245 243 243 248 244 243 245 241 238 236 237
283 281 280 276 276 277 276 273 270 265 258 257 257 255 255 254 255 256 254 251 250 248 254 266 269 265 264 262 264 262 257 248 249 241 239 242 241 240 240 241 237 236 235
291 282 280 277 275 275 274 272 269 266 263 259 257 255 256 254 255 256 254 251 253 255 252 257 267 266 270 266 265 265 259 250 254 243 235 236 239 240 239 237 236 235 234
293 288 281 278 275 274 270 269 269 268 266 265 260 257 255 253 254 258 255 252 252 256 255 254 261 262 266 267 261 262 267 254 252 248 240 241 241 239 236 234 235 235 235
291 289 285 281 277 273 267 270 272 269 267 268 265 257 256 257 257 257 255 254 253 254 256 255 259 258 257 259 256 257 261 266 254 245 246 244 242 240 237 235 233 233 235
294 290 287 284 280 275 275 277 277 273 271 268 267 265 260 259 260 260 259 258 256 252 253 255 257 254 254 256 256 255 260 261 258 238 242 248 242 244 242 237 236 235 235
295 290 286 283 282 282 280 281 280 279 273 269 267 266 266 262 263 260 261 261 259 256 254 255 257 258 258 253 252 253 254 258 260 256 241 246 241 245 245 243 240 233 232
291 288 286 285 282 282 285 283 282 279 273 270 268 266 265 266 263 263 263 263 262 259 257 257 259 263 263 262 253 250 253 259 268 260 237 245 245 247 249 248 237 230 230
289 287 287 285 282 284 285 284 283 278 270 269 268 267 266 265 265 267 264 262 263 263 262 260 265 268 269 267 259 248 243 244 257 261 247 244 246 254 253 245 231 226 231
287 288 285 284 282 282 285 286 285 276 272 271 269 266 265 266 268 267 263 262 262 266 268 267 268 270 268 265 257 246 240 239 248 257 244 238 242 243 255 243 232 232 235
Height
1528 1528 1529 1528 1529 1529 1528 1529 1529 1529 1529 1530 1531 1531 1532 1532 1532 1533 1533 1533 1534 1535 1536 1536 1537 1538 1539 1539 1540 1541 1542 1542 1543 1544 1544 1545 1546 1546 1547 1547 1548 1549 1549
1527 1527 1527 1526 1526 1527 1527 1527 1527 1527 1527 1528 1528 1529 1530 1530 1530 1531 1531 1531 1532 1533 1533 1534 1535 1536 1537 1538 1538 1539 1540 1541 1542 1543 1543 1544 1545 1545 1546 1547 1547 1548 1548
1525 1525 1525 1524 1524 1524 1524 1525 1525 1525 1525 1525 1526 1527 1527 1527 1528 1528 1529 1529 1530 1531 1531 1532 1533 1533 1534 1535 1536 1537 1538 1539 1540 1541 1542 1543 1543 1544 1545 1546 1546 1547 1547
1523 1523 1522 1522 1522 1522 1522 1522 1523 1522 1522 1522 1523 1524 1524 1524 1525 1526 1526 1527 1527 1528 1529 1529 1530 1531 1532 1533 1534 1535 1536 1537 1538 1539 1540 1541 1542 1543 1544 1545 1545 1546 1546
1521 1520 1520 1520 1520 1520 1520 1520 1520 1520 1520 1520 1520 1520 1521 1521 1522 1522 1523 1524 1525 1525 1526 1526 1527 1528 1529 1530 1531 1532 1533 1534 1536 1537 1538 1539 1540 1541 1542 1543 1544 1544 1545
1518 1518 1517 1517 1517 1517 1517 1517 1517 1517 1517 1517 1517 1517 1517 1518 1519 1519 1520 1521 1522 1522 1523 1523 1524 1525 1526 1527 1528 1529 1530 1531 1533 1534 1535 1537 1538 1539 1540 1541 1542 1542 1543
1515 1515 1515 1514 1514 1514 1514 1514 1514 1514 1514 1514 1514 1514 1514 1514 1515 1516 1517 1518 1518 1519 1520 1520 1521 1522 1522 1524 1525 1526 1527 1528 1529 1531 1532 1534 1535 1536 1537 1538 1539 1540 1541
1512 1512 1511 1511 1511 1511 1511 1511 1511 1511 1511 1512 1512 1512 1512 1513 1512 1512 1513 1514 1515 1515 1516 1517 1517 1518 1519 1520 1521 1522 1523 1524 1526 1527 1529 1530 1532 1533 1534 1535 1537 1537 1538
1508 1508 1508 1508 1508 1508 1507 1507 1508 1508 1508 1509 1510 1511 1511 1509 1509 1509 1509 1510 1511 1511 1512 1513 1513 1514 1515 1516 1516 1518 1519 1521 1522 1523 1525 1526 1528 1529 1531 1532 1533 1534 1535
1505 1504 1504 1504 1504 1504 1504 1504 1504 1504 1505 1505 1506 1507 1508 1508 1508 1505 1505 1506 1506 1507 1508 1509 1509 1510 1511 1511 1512 1513 1515 1516 1518 1519 1521 1522 1524 1525 1527 1528 1529 1530 1531
1500 1500 1500 1500 1500 1500 1500 1500 1500 1500 1501 1501 1502 1503 1503 1504 1504 1504 1502 1502 1502 1502 1503 1504 1505 1505 1506 1507 1508 1508 1510 1511 1513 1515 1516 1517 1519 1520 1522 1523 1525 1526 1527
1496 1496 1496 1496 1496 1496 1495 1495 1496 1496 1496 1497 1498 1498 1499 1500 1500 1500 1499 1498 1498 1498 1499 1500 1500 1501 1502 1502 1503 1504 1505 1507 1508 1510 1511 1513 1514 1515 1517 1519 1520 1522 1523
1491 1491 1491 1491 1491 1491 1491 1491 1491 1491 1491 1492 1492 1493 1494 1495 1495 1496 1496 1495 1494 1493 1494 1495 1496 1496 1497 1497 1498 1500 1501 1502 1504 1505 1506 1507 1509 1510 1511 1513 1515 1517 1518
1487 1487 1486 1486 1486 1486 1485 1486 1486 1486 1486 1487 1487 1488 1489 1490 1490 1491 1492 1492 1490 1489 1489 1489 1491 1491 1492 1492 1493 1494 1496 1497 1498 1499 1501 1502 1503 1504 1506 1508 1510 1511 1513
1483 1482 1482 1481 1481 1481 1481 1480 1480 1480 1481 1481 1482 1483 1483 1484 1485 1485 1486 1488 1488 1486 1484 1484 1485 1486 1487 1488 1488 1489 1490 1492 1493 1494 1495 1496 1498 1499 1500 1502 1504 1506 1507
1478 1478 1477 1477 1476 1476 1476 1475 1475 1475 1475 1476 1476 1477 1478 1478 1479 1480 1481 1482 1482 1482 1480 1479 1480 1481 1482 1482 1483 1484 1485 1486 1487 1488 1489 1490 1491 1493 1495 1496 1498 1500 1501
1474 1473 1472 1472 1471 1471 1471 1470 1469 1469 1470 1470 1471 1471 1472 1473 1473 1474 1475 1475 1476 1476 1475 1473 1475 1475 1476 1476 1477 1478 1479 1479 1481 1482 1483 1484 1485 1487 1489 1490 1492 1493 1495
1469 1468 1468 1467 1466 1466 1466 1465 1464 1464 1464 1464 1465 1465 1466 1467 1468 1468 1469 1469 1470 1470 1470 1468 1468 1470 1470 1471 1471 1471 1472 1473 1474 1474 1476 1477 1479 1481 1482 1484 1485 1487 1489
1465 1464 1463 1462 1462 1461 1460 1460 1459 1459 1458 1458 1459 1459 1460 1460 1461 1462 1462 1463 1463 1464 1464 1463 1462 1463 1464 1465 1465 1465 1466 1467 1467 1468 1469 1471 1473 1474 1476 1478 1479 1480 1482
1460 1459 1459 1458 1457 1456 1455 1455 1454 1453 1452 1452 1453 1453 1454 1454 1455 1456 1456 1456 1457 1458 1458 1457 1456 1456 1457 1458 1459 1459 1459 1460 1461 1462 1463 1464 1466 1468 1469 1471 1472 1473 1475
1456 1455 1454 1453 1452 1451 1450 1449 1449 1448 1447 1447 1447 1447 1447 1448 1448 1449 1449 1450 1451 1451 1451 1451 1450 1451 1451 1452 1453 1453 1453 1453 1454 1455 1456 1457 1459 1460 1461 1463 1465 1466 1468
1452 1450 1449 1448 1447 1446 1445 1445 1444 1443 1442 1442 1441 1441 1441 1441 1442 1442 1443 1444 1445 1445 1444 1444 1444 1444 1444 1446 1447 1447 1448 1447 1447 1449 1450 1450 1452 1453 1454 1455 1457 1458 1460
1447 1446 1444 1443 1441 1441 1440 1439 1439 1438 1437 1436 1436 1436 1435 1435 1435 1435 1435 1436 1437 1437 1438 1438 1437 1437 1438 1439 1440 1440 1441 1440 1440 1442 1444 1442 1444 1445 1447 1448 1449 1451 1453
1443 1441 1439 1438 1436 1435 1435 1434 1433 1433 1432 1431 1431 1430 1429 1429 1429 1429 1429 1429 1429 1429 1430 1431 1430 1430 1432 1433 1434 1434 1434 1434 1434 1435 1436 1436 1437 1438 1440 1441 1442 1444 1445
1438 1436 1434 1433 1431 1430 1429 1429 1428 1427 1426 1425 1425 1424 1424 1423 1423 1423 1423 1422 1422 1422 1423 1423 1423 1423 1424 1425 1426 1427 1427 1427 1426 1426 1429 1429 1429 1431 1432 1433 1434 1436 1438
1433 1431 1429 1428 1426 1425 1424 1424 1423 1422 1421 1420 1419 1418 1418 1417 1417 1417 1417 1416 1415 1415 1416 1415 1415 1415 1416 1417 1418 1419 1419 1420 1419 1419 1421 1423 1423 1425 1425 1425 1427 1429 1430